{"data":{"norad_id":53047,"epoch":"2026-09-19T22:28:42.616704Z","epoch_age_seconds":118104,"freshness":"FRESH","line1":"1 53047U 22077E   26262.93660436  .00000355  00000+0  13326-4 0  9993","line2":"2 53047  97.2847  77.7823 0001487  90.8820 269.2593 15.33435193230210","mean_motion":15.33435193,"eccentricity":0.0001487,"inclination_deg":97.2847,"raan_deg":77.7823,"arg_perigee_deg":90.882,"mean_anomaly_deg":269.2593,"bstar":1.3326e-5,"rev_number":23021,"period_min":93.906805228775,"perigee_km":464.55469378498,"apogee_km":466.59001294667,"semimajor_km":6843.7093533658,"source":"CELESTRAK","updated_at":"2026-09-20T09:00:40.150369Z"}}